EW0482 Weather Reports


Display with metric or nautical units.
time (UTC)temp
F
wind
direction
speed
MPH
gust
MPH
rain 1hr
in
rain 24hr
in
rain mn
in
humidity
%
barometer
mb
20260906203024 71 14 0.0 4.0 0.06 0.44 0.44 22 1002.6
20260906201521 70 46 0.0 4.0 0.05 0.43 0.43 27 1002.8
20260906200020 70 318 0.0 2.0 0.05 0.43 0.43 28 1003.3
20260906194518 70 318 0.0 1.0 0.03 0.40 0.40 35 1004.0
20260906193017 70 317 0.0 2.0 0.03 0.38 0.38 39 1003.8
20260906191516 70 38 0.0 4.0 0.05 0.38 0.38 38 1003.7
20260906190014 70 310 0.0 2.0 0.04 0.37 0.37 41 1003.8
20260906184512 69 313 0.0 2.0 0.05 0.37 0.37 52 1004.8
20260906183015 69 313 0.0 2.0 0.04 0.35 0.35 55 1004.2
20260906181508 69 308 0.0 2.0 0.06 0.33 0.33 59 1004.6
20260906180006 68 340 0.0 3.0 0.08 0.33 0.33 65 1004.8
20260906174509 68 295 0.0 1.0 0.07 0.32 0.32 66 1004.8
20260906173004 68 293 0.0 1.0 0.10 0.31 0.31 71 1005.0
20260906171503 68 293 0.0 1.0 0.09 0.27 0.27 75 1005.0
20260906170125 68 293 0.0 5.0 0.13 0.26 0.26 78 1004.4
20260906164601 68 292 0.0 2.0 0.13 0.25 0.25 79 1003.9
20260906163101 68 292 0.0 0.0 0.10 0.21 0.21 81 1004.0
20260906161556 67 292 0.0 0.0 0.07 0.18 0.18 83 1004.2
20260906160055 67 292 0.0 0.0 0.02 0.13 0.13 84 1003.9
20260906154553 67 292 0.0 0.0 0.01 0.12 0.12 84 1003.5
20260906153050 67 292 0.0 0.0 0.01 0.11 0.11 85 1002.9
20260906151559 67 292 0.0 0.0 0.02 0.11 0.11 85 1002.6
20260906150056 66 292 0.0 1.0 0.02 0.11 0.11 85 1002.3
20260906144549 66 292 0.0 0.0 0.02 0.11 0.11 85 1002.4
20260906143105 66 292 0.0 3.0 0.01 0.10 0.10 85 1002.4
20260906141547 66 299 0.0 3.0 0.00 0.09 0.09 85 1002.6
20260906140050 65 300 1.0 5.0 0.01 0.09 0.09 84 1002.3
20260906134553 64 268 0.0 3.0 0.04 0.09 0.09 84 1002.3
20260906133045 64 265 0.0 2.0 0.06 0.09 0.09 82 1002.8
20260906131546 65 272 0.0 5.0 0.07 0.09 0.09 81 1002.7
20260906130038 67 300 0.0 4.0 0.08 0.08 0.08 82 1002.5
20260906124542 69 246 0.0 2.0 0.05 0.05 0.05 81 1002.7
20260906123104 71 245 0.0 0.0 0.03 0.03 0.03 78 1002.4
20260906121529 73 245 0.0 1.0 0.02 0.02 0.02 77 1002.0
20260906120025 72 246 0.0 0.0 0.00 0.00 0.00 71 1001.4
20260906114525 72 246 0.0 0.0 0.00 0.00 0.00 71 1000.9
20260906113025 72 246 0.0 0.0 0.00 0.00 0.00 72 1001.1
20260906111529 71 246 0.0 0.0 0.00 0.00 0.00 73 1001.1
20260906110023 72 246 0.0 0.0 0.00 0.00 0.00 73 1001.1
20260906104525 72 246 0.0 0.0 0.00 0.00 0.00 74 1001.1
20260906103022 72 246 0.0 0.0 0.00 0.00 0.00 74 1001.1
20260906101521 72 246 0.0 0.0 0.00 0.00 0.00 74 1001.0
20260906100019 72 246 0.0 0.0 0.00 0.00 0.00 73 1001.1
20260906094518 72 246 0.0 0.0 0.00 0.00 0.00 72 1001.2
20260906093022 72 246 0.0 0.0 0.00 0.00 0.00 73 1001.2
20260906091517 71 246 0.0 0.0 0.00 0.00 0.00 73 1001.1
20260906090015 71 246 0.0 0.0 0.00 0.00 0.00 72 1001.2
20260906084513 71 246 0.0 0.0 0.00 0.00 0.00 73 1001.4
20260906083014 70 246 0.0 0.0 0.00 0.00 0.00 73 1001.3
20260906081511 70 246 0.0 0.0 0.00 0.00 0.00 71 1001.5
20260906080023 69 246 0.0 0.0 0.00 0.00 0.00 70 1001.6
20260906074508 70 246 0.0 0.0 0.00 0.00 0.00 73 1001.5
20260906073006 70 246 0.0 0.0 0.00 0.00 0.00 75 1001.5
20260906071503 71 246 0.0 0.0 0.00 0.00 0.00 76 1001.5
20260906064600 72 246 0.0 0.0 0.00 0.00 0.00 77 1001.3
20260906063101 72 246 0.0 0.0 0.00 0.00 0.00 78 1001.4
20260906061559 71 246 0.0 0.0 0.00 0.00 0.00 77 1001.6
20260906060059 71 246 0.0 0.0 0.00 0.00 0.00 78 1001.4
20260906054558 72 246 0.0 0.0 0.00 0.00 0.00 78 1001.5
20260906053107 72 246 0.0 0.0 0.00 0.00 0.00 78 1001.7
20260906051600 73 246 0.0 0.0 0.00 0.00 0.00 77 1001.8
20260906050056 73 246 0.0 1.0 0.00 0.00 0.00 75 1001.8
20260906044556 73 246 0.0 0.0 0.00 0.00 0.00 72 1001.8
20260906043101 73 246 0.0 0.0 0.00 0.00 0.00 70 1001.7
20260906041559 73 246 0.0 0.0 0.00 0.00 0.00 72 1001.7
20260906040055 73 246 0.0 0.0 0.00 0.00 0.00 71 1001.7
20260906034554 74 246 0.0 0.0 0.00 0.00 0.00 71 1001.5
20260906033108 74 246 0.0 1.0 0.00 0.00 0.00 69 1001.4
20260906031554 75 246 0.0 0.0 0.00 0.00 0.00 67 1001.3
20260906030053 75 246 0.0 1.0 0.00 0.00 0.00 67 1001.1
20260906024553 75 245 0.0 3.0 0.00 0.00 0.00 64 1001.0
20260906023055 76 249 0.0 1.0 0.00 0.00 0.00 64 1001.2
20260906021552 76 249 0.0 5.0 0.00 0.00 0.00 64 1001.1
20260906020104 77 240 0.0 3.0 0.00 0.00 0.00 63 1001.1
20260906014552 76 257 0.0 9.0 0.00 0.00 0.00 62 1000.9
20260906013058 77 246 0.0 6.0 0.00 0.00 0.00 65 1001.1
20260906011601 77 237 0.0 4.0 0.00 0.00 0.00 62 1001.1
20260906010049 77 257 0.0 5.0 0.00 0.00 0.00 63 1001.1
20260906004555 77 250 2.0 6.0 0.00 0.00 0.00 66 1001.0
20260906003048 78 243 0.0 6.0 0.00 0.00 0.00 65 1001.0
20260906001551 79 248 1.0 8.0 0.00 0.00 0.00 65 1000.9
20260906000055 81 222 1.0 8.0 0.00 0.00 0.00 61 1000.9
20260905234548 81 215 3.0 8.0 0.00 0.00 0.00 60 1000.8
20260905233046 81 243 2.0 10.0 0.00 0.00 0.00 61 1000.9
20260905231545 82 250 1.0 8.0 0.00 0.00 0.00 59 1000.9
20260905230044 83 248 2.0 9.0 0.00 0.00 0.00 56 1000.9
20260905224549 84 269 2.0 7.0 0.00 0.00 0.00 56 1001.1
20260905223042 84 250 0.0 6.0 0.00 0.00 0.00 59 1001.2
20260905221540 84 202 0.0 3.0 0.00 0.00 0.00 58 1001.4
20260905220038 84 209 0.0 7.0 0.00 0.00 0.00 57 1001.6
20260905214537 84 194 0.0 9.0 0.00 0.00 0.00 56 1001.7
20260905213037 84 258 1.0 6.0 0.00 0.00 0.00 55 1001.9
20260905211541 84 241 0.0 6.0 0.00 0.00 0.00 57 1001.9
20260905210034 84 255 1.0 9.0 0.00 0.00 0.00 57 1001.9
20260905204537 84 253 2.0 5.0 0.00 0.00 0.00 56 1002.1